This demonstration page uses our WeatherBlox Daily Observations layout. Learn more.

Left ArrowRight Arrow

34.02893, -84.19858

Hourly Observations for February 19, 2021

Temp ( °F °C ) Dew Point ( °F °C ) Humidity (%) Winds ( mph kmh ) Pressure ( in mb ) Visibility ( mi km ) Precip ( " mm )
12:08 am 00:08 Cloudy with Mist and Fog 42 5.6 42 5.6 100 100 NW 6 9 30.11 1020 1 2 0.00 0.00
12:22 am 00:22 Cloudy with Mist and Fog 42 5.6 42 5.6 100 100 NW 6 9 30.11 1020 3 4 0.00 0.00
12:29 am 00:29 Cloudy with Mist and Fog 42 5.6 42 5.6 100 100 NW 8 13 30.12 1020 4 6 0.00 0.00
12:45 am 00:45 Cloudy with Mist and Fog 42 5.6 42 5.6 100 100 NW 7 11 30.11 1020 5 8 0.00 0.00
12:53 am 00:53 Cloudy with Mist and Fog 42 5.6 42 5.6 100 100 NW 3 6 30.11 1020 5 8 0.00 0.00
1:53 am 01:53 Cloudy with Mist and Fog 41 5 41 5 100 100 NW 8 13 30.08 1019 3 5 0.00 0.00
2:53 am 02:53 Cloudy with Mist and Fog 41 5 40 4.4 96 96 NW 9 15 30.09 1019 6 10 0.00 0.00
3:12 am 03:12 Cloudy 41 5 39 3.9 93 93 NW 9 15 30.09 1019 7 11 0.00 0.00
3:53 am 03:53 Cloudy 40 4.4 39 3.9 97 97 NW 8 13 30.10 1019 7 11 0.00 0.00
4:39 am 04:39 Cloudy with Mist and Fog 38 3.3 37 2.8 97 97 NW 9 15 30.10 1019 6 10 0.00 0.00
4:53 am 04:53 Cloudy 38 3.3 37 2.8 97 97 WNW 12 19 30.11 1020 7 11 0.00 0.00
5:21 am 05:21 Cloudy 38 3.3 36 2.2 93 93 NW 10 17 30.10 1019 8 13 0.00 0.00
5:53 am 05:53 Cloudy 37 2.8 36 2.2 96 96 WNW 9 15 30.12 1020 10 16 0.00 0.00
6:53 am 06:53 Cloudy 36 2.2 34 1.1 93 93 WNW 10 17 30.14 1021 9 14 0.00 0.00
7:53 am 07:53 Cloudy 35 1.7 34 1.1 96 96 WNW 10 17 30.15 1021 8 13 0.00 0.00
8:53 am 08:53 Cloudy 35 1.7 33 0.6 93 93 NW 10 17 30.16 1021 8 13 0.00 0.00
9:42 am 09:42 Cloudy 36 2.2 32 0 86 86 NW 15 24 30.17 1022 9 14 0.00 0.00
9:53 am 09:53 Cloudy 36 2.2 33 0.6 89 89 NW 10 17 30.17 1022 9 14 0.00 0.00
10:53 am 10:53 Cloudy 38 3.3 33 0.6 83 83 NW 14 22 30.18 1022 9 14 0.00 0.00
11:41 am 11:41 Cloudy 38 3.3 32 0 79 79 WNW 17 28 30.20 1023 9 14 0.00 0.00
11:53 am 11:53 Cloudy 38 3.3 32 0 79 79 NW 13 20 30.19 1022 9 14 0.00 0.00
12:53 pm 12:53 Mostly Sunny 40 4.4 32 0 73 73 WNW 16 26 30.19 1022 10 16 0.00 0.00
1:53 pm 13:53 Sunny 43 6.1 34 1.1 71 71 NNW 15 24 30.17 1022 10 16 0.00 0.00
2:53 pm 14:53 Sunny 45 7.2 32 0 61 61 NW 15 24 30.17 1022 10 16 0.00 0.00
3:53 pm 15:53 Sunny 46 7.8 31 -0.6 56 56 WNW 15 24 30.18 1022 10 16 0.00 0.00
4:53 pm 16:53 Sunny 46 7.8 29 -1.7 51 51 WNW 14 22 30.19 1022 10 16 0.00 0.00
5:53 pm 17:53 Sunny 44 6.7 26 -3.3 49 49 NW 15 24 30.21 1023 10 16 0.00 0.00
6:53 pm 18:53 Clear 41 5 25 -3.9 53 53 NW 13 20 30.23 1024 10 16 0.00 0.00
7:53 pm 19:53 Clear 40 4.4 25 -3.9 55 55 NW 8 13 30.25 1024 10 16 0.00 0.00
8:53 pm 20:53 Clear 39 3.9 24 -4.4 55 55 NW 8 13 30.27 1025 10 16 0.00 0.00
9:53 pm 21:53 Clear 38 3.3 23 -5 55 55 NW 10 17 30.30 1026 10 16 0.00 0.00
10:53 pm 22:53 Clear 36 2.2 22 -5.6 57 57 NW 12 19 30.34 1027 10 16 0.00 0.00
11:53 pm 23:53 Clear 34 1.1 23 -5 64 64 NNW 7 11 30.33 1027 10 16 0.00 0.00

Powered by AerisWeather